Back to catalog

STARLINK-35399

AliveCommunicationsVLEO
NORAD 66029·PAYLOAD·🇺🇸 United States

Launched Oct 16, 2025 from Cape Canaveral Space Force Station

Loading…

Next Passes (next 24 hours)

TLE

FreshSource: CelesTrak SupGP

Epoch: Sep 14, 2026, 15:48 UTC

1 66029C 25232AA  26257.65881944  .00021249  00000+0  62800-3 0  2577
2 66029  53.1575 303.3441 0001242  70.8761  61.2719 15.34370695    17

Track STARLINK-35399 in real time with AllMySat

Download on the App Store